Overview Statistics Trail Chart Weather Telemetry Raw packets
 

This is the latest recevied weather packets stored in our database for station/object KO4LCK. If no packets are shown the sender has not sent any weather packets the latest 10 day(s).

<< 38 39 40 41 42 43 44 >>
Time Temp. Humidity Pressure Rain* Wind** Luminosity Snow
1788387457 36.11° C 44% 1017.6 hPa 0 mm - 180 W/m² -
1788387156 36.11° C 43% 1017.6 hPa 0 mm - 104 W/m² -
1788386852 36.11° C 42% 1017.5 hPa 0 mm - 124 W/m² -
1788386551 36.11° C 42% 1017.6 hPa 0 mm - 184 W/m² -
1788386247 36.11° C 42% 1017.5 hPa 0 mm - 220 W/m² -
1788385942 36.11° C 42% 1017.7 hPa 0 mm - 154 W/m² -
1788385638 36.67° C 42% 1017.5 hPa 0 mm - 196 W/m² -
1788385336 36.11° C 42% 1017.7 hPa 0 mm - 276 W/m² -
1788385032 35.56° C 43% 1017.5 hPa 0 mm - 289 W/m² -
1788384727 34.44° C 50% 1017.6 hPa 0 mm - 303 W/m² -
1788384426 34.44° C 51% 1017.8 hPa 0 mm - 105 W/m² -
1788384123 35° C 52% 1017.8 hPa 0 mm - 98 W/m² -
1788383819 35° C 47% 1017.9 hPa 0 mm - 100 W/m² -
1788383514 35° C 46% 1017.8 hPa 0 mm - 112 W/m² -
1788383214 35.56° C 47% 1017.9 hPa 0 mm - 111 W/m² -
1788382909 35.56° C 48% 1018 hPa 0 mm - 108 W/m² -
1788382607 35.56° C 44% 1017.8 hPa 0 mm - 128 W/m² -
1788382302 35.56° C 43% 1018 hPa 0 mm - 187 W/m² -
1788381997 35.56° C 44% 1018 hPa 0 mm - 193 W/m² -
1788381692 36.11° C 42% 1018.1 hPa 0 mm - 161 W/m² -
1788381388 36.67° C 42% 1018.1 hPa 0 mm - 182 W/m² -
1788381087 37.22° C 42% 1018.1 hPa 0 mm - 205 W/m² -
1788380798 38.33° C 41% 1018.1 hPa 0 mm - 563 W/m² -
1788380480 38.89° C 39% 1018 hPa 0 mm - 588 W/m² -
1788380175 38.33° C 39% 1018.3 hPa 0 mm - 569 W/m² -

* Rain latest hour (hover to see other rain measurements)
** Current wind speed in m/s (hover to see current wind gust speed)